Sugar Grove, IL

5:59 AM CST on February 11, 2016 (GMT -0600)
Aurora Municipal

Weather History for KARR - October, 2012

Change the Weather History Date:

Tuesday, October 30, 2012

  Actual Average Record
Temperature  
Mean Temperature 41 °F 46 °F  
Max Temperature 47 °F 57 °F 74 °F (1999)
Min Temperature 35 °F 35 °F 25 °F (2014)
Degree Days  
Heating Degree Days 24 19  
Month to date heating degree days 464 435  
Since 1 July heating degree days 663 588  
Cooling Degree Days 0 0  
Month to date cooling degree days 3 9  
Year to date cooling degree days 1007 656  
Moisture  
Dew Point 26 °F    
Average Humidity 59    
Maximum Humidity 75    
Minimum Humidity 42    
Precipitation  
Precipitation 0.00 in 0.09 in 1.02 in (2013)
Month to date precipitation 3.71 3.04  
Year to date precipitation 21.49 31.68  
Sea Level Pressure  
Sea Level Pressure 29.90 in    
Wind  
Wind Speed 20 mph (NNW)    
Max Wind Speed 30 mph    
Max Gust Speed 37 mph    
Visibility 10 miles    
Events      
T = Trace of Precipitation, MM = Missing Value Source: NWS Daily Summary

Daily Weather History Graph

Daily Weather History Graph

Search for Another Location

Airport or City:

Trip Planner

Search our weather history database for the weather conditions in past years. The results will help you decide how hot, cold, wet, or windy it might be!

Date:

Astronomy

Oct. 30, 2012 Rise Set
Actual Time 7:24 AM CDT 5:50 PM CDT
Civil Twilight 6:55 AM CDT 6:18 PM CDT
Nautical Twilight 6:22 AM CDT 6:51 PM CDT
Astronomical Twilight 5:50 AM CDT 7:24 PM CDT
Moon 6:18 PM CDT (10/30) 8:11 AM CDT (10/30)
Length of Visible Light 11h 23m
Length of Day
10h 25m
Full, 99% of the Moon is Illuminated
Oct 30
Full
Nov 6
Last Quarter
Nov 13
New
Nov 20
First Quarter
Nov 28
Full

Hourly Weather History & Observations

Time (CDT) Temp. Windchill Dew Point Humidity Pressure Visibility Wind Dir Wind Speed Gust Speed Precip Events Conditions
12:52 AM 35.1 °F 26.9 °F 28.9 °F 78% 30.07 in 10.0 mi NW 11.5 mph - N/A   Clear
1:52 AM 36.0 °F 26.3 °F 28.0 °F 73% 30.04 in 10.0 mi NNW 16.1 mph - N/A   Clear
2:52 AM 36.0 °F 27.1 °F 28.0 °F 73% 30.01 in 10.0 mi NNW 13.8 mph - N/A   Clear
3:52 AM 36.0 °F 25.0 °F 28.0 °F 73% 29.99 in 10.0 mi NNW 20.7 mph - N/A   Clear
4:52 AM 36.0 °F 25.3 °F 28.0 °F 73% 29.97 in 10.0 mi NNW 19.6 mph 28.8 mph N/A   Clear
5:52 AM 36.0 °F 25.3 °F 28.0 °F 73% 29.96 in 10.0 mi NNW 19.6 mph - N/A   Clear
6:52 AM 36.0 °F 25.0 °F 28.0 °F 73% 29.94 in 10.0 mi NNW 20.7 mph 26.5 mph N/A   Clear
7:52 AM 36.0 °F 25.0 °F 28.0 °F 73% 29.93 in 10.0 mi NNW 20.7 mph 29.9 mph N/A   Clear
8:52 AM 37.0 °F 26.2 °F 28.0 °F 70% 29.91 in 10.0 mi NNW 21.9 mph 29.9 mph N/A   Clear
9:52 AM 39.0 °F 28.3 °F 27.0 °F 62% 29.89 in 10.0 mi NNW 24.2 mph 33.4 mph N/A   Mostly Cloudy
10:52 AM 41.0 °F 30.2 °F 26.1 °F 55% 29.88 in 10.0 mi North 27.6 mph 35.7 mph N/A   Clear
11:52 AM 43.0 °F 33.1 °F 26.1 °F 51% 29.86 in 10.0 mi North 26.5 mph 34.5 mph N/A   Clear
12:52 PM 45.0 °F 35.8 °F 26.1 °F 48% 29.84 in 10.0 mi NNW 26.5 mph 33.4 mph N/A   Clear
1:52 PM 46.0 °F 37.4 °F 27.0 °F 47% 29.82 in 10.0 mi NNW 25.3 mph 32.2 mph N/A   Clear
2:52 PM 46.9 °F - 27.0 °F 46% 29.82 in 10.0 mi NNW 23.0 mph 33.4 mph N/A   Clear
3:52 PM 46.0 °F 37.6 °F 25.0 °F 44% 29.82 in 10.0 mi NNW 24.2 mph 32.2 mph N/A   Mostly Cloudy
4:52 PM 45.0 °F 37.1 °F 25.0 °F 46% 29.84 in 10.0 mi NNW 19.6 mph - N/A   Mostly Cloudy
7:52 PM 43.0 °F 35.7 °F 23.0 °F 45% 29.86 in 10.0 mi NNW 15.0 mph 25.3 mph N/A   Overcast
8:52 PM 39.0 °F 31.4 °F 23.0 °F 53% 29.86 in 10.0 mi NNW 12.7 mph - N/A   Clear
9:52 PM 37.9 °F 29.2 °F 23.0 °F 55% 29.85 in 10.0 mi NNW 15.0 mph - N/A   Clear
10:52 PM 37.0 °F 28.9 °F 23.0 °F 57% 29.84 in 10.0 mi NNW 12.7 mph - N/A   Clear
11:52 PM 37.0 °F 28.1 °F 24.1 °F 59% 29.83 in 10.0 mi NNW 15.0 mph - N/A   Clear